This demonstration page uses our WeatherBlox Daily Observations layout. Learn more.

Hourly Observations for June 15, 2017

Temp ( °F °C ) Dew Point ( °F °C ) Humidity (%) Winds ( mph kmh ) Pressure ( in mb ) Visibility ( mi km ) Precip ( " mm )
12:54 am 00:54 Clear 67 19.4 62 16.7 84 84 Calm 29.82 1010 10 16.0934 0 0
1:54 am 01:54 Clear 67 19.4 62 16.7 84 84 Calm 29.8 1009 10 16.0934 0 0
2:54 am 02:54 Clear 64 17.8 62 16.7 93 93 Calm 29.8 1009 10 16.0934 0 0
3:54 am 03:54 Clear 63 17.2 59 15 87 87 Calm 29.81 1009 10 16.0934 0 0
4:54 am 04:54 Clear 63 17.2 61 16.1 93 93 Calm 29.81 1009 10 16.0934 0 0
5:54 am 05:54 Clear 62 16.7 60 15.6 93 93 Calm 29.83 1010 10 16.0934 0 0
6:54 am 06:54 Sunny 65 18.3 58 14.4 78 78 Calm 29.85 1011 10 16.0934 0 0
7:54 am 07:54 Sunny 69 20.6 61 16.1 76 76 NNW 6 9 29.87 1011 10 16.0934 0 0
8:54 am 08:54 Sunny 75 23.9 62 16.7 64 64 W 6 9 29.88 1012 10 16.0934 0 0
9:54 am 09:54 Sunny 80 26.7 63 17.2 56 56 VRB 7 11 29.87 1011 10 16.0934 0 0
10:54 am 10:54 Sunny 83 28.3 64 17.8 53 53 SSW 9 15 29.85 1011 10 16.0934 0 0
11:54 am 11:54 Sunny 86 30 66 18.9 51 51 WSW 9 15 29.84 1011 10 16.0934 0 0
12:54 pm 12:54 Sunny 88 31.1 67 19.4 50 50 SW 6 9 29.83 1010 10 16.0934 0 0
1:54 pm 13:54 Sunny 91 32.8 65 18.3 42 42 SW 6 9 29.81 1010 10 16.0934 0 0
2:54 pm 14:54 Sunny 93 33.9 64 17.8 38 38 SSW 5 7 29.79 1009 10 16.0934 0 0
3:54 pm 15:54 Sunny 94 34.4 62 16.7 35 35 W 8 13 29.77 1008 10 16.0934 0 0
4:54 pm 16:54 Sunny 94 34.4 63 17.2 36 36 NW 6 9 29.75 1008 10 16.0934 0 0
5:54 pm 17:54 Sunny 92 33.3 65 18.3 41 41 N 9 15 29.73 1007 10 16.0934 0 0
6:54 pm 18:54 Sunny 89 31.7 67 19.4 48 48 N 8 13 29.72 1007 10 16.0934 0 0
7:54 pm 19:54 Sunny 83 28.3 68 20 61 61 NE 8 13 29.7 1006 10 16.0934 0 0
8:54 pm 20:54 Mostly Cloudy 83 28.3 66 18.9 57 57 S 14 22 29.72 1007 10 16.0934 0 0
9:54 pm 21:54 Mostly Clear 77 25 66 18.9 69 69 S 3 6 29.77 1008 10 16.0934 0 0
10:54 pm 22:54 Clear 76 24.4 63 17.2 64 64 NNW 7 11 29.77 1008 10 16.0934 0 0
11:54 pm 23:54 Clear 73 22.8 64 17.8 74 74 ENE 3 6 29.78 1008 10 16.0934 0 0

Powered by AerisWeather